Location: Unspecified
(54.1780°N, 0.0000°E)
Time: 15:33:08
(UTC+00:00)

Tiros 1 despin weight - All Passes

Search period start: 16 June 2019 00:00
Search period end: 26 June 2019 00:00
Orbit: 595 x 642 km, 48.2° (Epoch: 15 June)

Date Brightness Start Highest point End Pass type
(mag) Time Alt. Az. Time Alt. Az. Time Alt. Az.
16 Jun - 01:31:30 10° S 01:34:08 16° SSE 01:36:45 10° ESE visible
16 Jun - 03:10:51 10° SW 03:14:48 33° SSE 03:18:47 10° ESE daylight
16 Jun - 04:51:43 10° WSW 04:55:48 37° S 04:59:54 10° ESE daylight
16 Jun - 06:33:14 10° WSW 06:36:39 22° SSW 06:40:06 10° SSE daylight
17 Jun - 01:46:56 10° SSW 01:50:22 22° SSE 01:53:48 10° ESE visible
17 Jun - 03:27:08 10° WSW 03:31:13 37° S 03:35:19 10° ESE daylight
17 Jun - 05:08:15 10° WSW 05:12:13 32° SSW 05:16:12 10° SE daylight
17 Jun - 06:50:18 10° WSW 06:52:54 15° SSW 06:55:31 10° S daylight
18 Jun - 00:24:24 10° SSE 00:26:08 12° SE 00:27:53 10° ESE visible
18 Jun - 02:02:52 10° SW 02:06:42 29° SSE 02:10:31 10° ESE visible
18 Jun - 03:43:33 10° WSW 03:47:40 38° S 03:51:47 10° ESE daylight
18 Jun - 05:24:54 10° WSW 05:28:35 26° SSW 05:32:16 10° SE daylight
19 Jun - 00:39:17 10° SSW 00:42:19 18° SSE 00:45:22 10° ESE visible
19 Jun - 02:19:04 10° SW 02:23:05 35° S 02:27:07 10° ESE visible
19 Jun - 04:00:03 10° WSW 04:04:06 35° S 04:08:08 10° SE daylight
19 Jun - 05:41:45 10° WSW 05:44:53 19° SSW 05:48:00 10° SSE daylight
20 Jun - 00:54:58 10° SSW 00:58:36 25° SSE 01:02:15 10° ESE visible
20 Jun - 02:35:25 10° WSW 02:39:30 38° S 02:43:37 10° ESE daylight
20 Jun - 04:16:38 10° WSW 04:20:29 30° SSW 04:24:21 10° SE daylight
20 Jun - 05:59:08 10° WSW 06:01:04 13° SW 06:03:01 10° S daylight
20 Jun - 23:31:50 10° S 23:34:19 15° SE 23:36:46 10° ESE visible
21 Jun - 01:11:02 10° SW 01:14:58 32° SSE 01:18:54 10° ESE visible
21 Jun - 02:51:52 10° WSW 02:55:57 37° S 03:00:03 10° ESE daylight
21 Jun - 04:33:20 10° WSW 04:36:49 23° SSW 04:40:18 10° SSE daylight
21 Jun - 23:47:10 10° SSW 23:50:32 21° SSE 23:53:53 10° ESE visible
22 Jun - 01:27:17 10° WSW 01:31:22 37° S 01:35:27 10° ESE visible
22 Jun - 03:08:23 10° WSW 03:12:22 33° SSW 03:16:21 10° SE daylight
22 Jun - 04:50:20 10° WSW 04:53:04 16° SSW 04:55:48 10° S daylight
22 Jun - 22:24:53 10° SSE 22:26:19 11° SE 22:27:44 10° ESE visible
23 Jun - 00:03:03 10° SW 00:06:51 28° SSE 00:10:39 10° ESE visible
23 Jun - 01:43:42 10° WSW 01:47:49 38° S 01:51:54 10° ESE visible
23 Jun - 03:25:01 10° WSW 03:28:44 27° SSW 03:32:28 10° SE daylight
23 Jun - 05:08:44 10° SW 05:09:14 10° SW 05:09:44 10° SSW daylight
23 Jun - 22:39:32 10° S 22:42:29 18° SSE 22:45:27 10° ESE visible
24 Jun - 00:19:13 10° SW 00:23:15 34° SSE 00:27:15 10° ESE visible
24 Jun - 02:00:11 10° WSW 02:04:14 36° S 02:08:17 10° ESE visible
24 Jun - 03:41:49 10° WSW 03:45:02 20° SSW 03:48:15 10° SSE daylight
24 Jun - 22:55:09 10° SSW 22:58:46 24° SSE 23:02:21 10° ESE visible
25 Jun - 00:35:33 10° WSW 00:39:40 38° S 00:43:46 10° ESE visible
25 Jun - 02:16:44 10° WSW 02:20:38 31° SSW 02:24:32 10° SE visible
25 Jun - 03:59:05 10° WSW 04:01:15 13° SW 04:03:25 10° S daylight
25 Jun - 21:32:10 10° S 21:34:28 14° SE 21:36:48 10° ESE visible
25 Jun - 23:11:11 10° SW 23:15:07 31° SSE 23:19:02 10° ESE visible
